| time (UTC) | temp F | wind direction | speed MPH | gust MPH | rain 1hr in | rain 24hr in | rain mn in | humidity % | barometer mb |
| 20260903103458 | 73 | 21 | 0.0 | 0.0 | 0.00 | 0.00 | 0.00 | 99 | 1008.4 |
| 20260903102958 | 73 | 21 | 0.0 | 0.0 | 0.00 | 0.00 | 0.00 | 99 | 1008.6 |
| 20260903102459 | 73 | 21 | 0.0 | 0.0 | 0.00 | 0.00 | 0.00 | 99 | 1008.7 |
| 20260903102000 | 73 | 21 | 0.0 | 0.0 | 0.00 | 0.00 | 0.00 | 99 | 1008.3 |
| 20260903100458 | 73 | 21 | 0.0 | 0.0 | 0.00 | 0.00 | 0.00 | 99 | 1008.1 |
| 20260903095459 | 73 | 21 | 0.0 | 0.0 | 0.00 | 0.00 | 0.00 | 99 | 1008.1 |
| 20260903094500 | 73 | 21 | 0.0 | 0.0 | 0.00 | 0.00 | 0.00 | 99 | 1008.3 |
| 20260903093959 | 73 | 21 | 0.0 | 0.0 | 0.00 | 0.00 | 0.00 | 99 | 1008.3 |
| 20260903093501 | 73 | 21 | 0.0 | 0.0 | 0.00 | 0.00 | 0.00 | 98 | 1008.3 |
| 20260903092958 | 73 | 21 | 0.0 | 0.0 | 0.00 | 0.00 | 0.00 | 98 | 1008.2 |
| 20260903092500 | 73 | 21 | 0.0 | 0.0 | 0.00 | 0.00 | 0.00 | 98 | 1008.1 |
| 20260903091958 | 73 | 21 | 0.0 | 0.0 | 0.00 | 0.00 | 0.00 | 98 | 1008.1 |
| 20260903091458 | 73 | 21 | 0.0 | 0.0 | 0.00 | 0.00 | 0.00 | 98 | 1008.1 |
| 20260903090958 | 73 | 21 | 0.0 | 0.0 | 0.00 | 0.00 | 0.00 | 97 | 1008.1 |
| 20260903090458 | 74 | 21 | 0.0 | 0.0 | 0.00 | 0.00 | 0.00 | 97 | 1008.1 |
| 20260903085959 | 74 | 21 | 0.0 | 0.0 | 0.00 | 0.00 | 0.00 | 97 | 1008.0 |
| 20260903084958 | 74 | 21 | 0.0 | 2.0 | 0.00 | 0.00 | 0.00 | 97 | 1007.7 |
| 20260903084458 | 74 | 28 | 0.0 | 0.0 | 0.00 | 0.00 | 0.00 | 97 | 1007.7 |
| 20260903084044 | 74 | 28 | 0.0 | 0.0 | 0.00 | 0.00 | 0.00 | 97 | 1007.9 |
| 20260903084011 | 74 | 28 | 0.0 | 0.0 | 0.00 | 0.00 | 0.00 | 97 | 1007.9 |
| 20260903082958 | 74 | 42 | 0.0 | 0.0 | 0.00 | 0.00 | 0.00 | 97 | 1007.9 |
| 20260903081959 | 74 | 42 | 0.0 | 0.0 | 0.00 | 0.00 | 0.00 | 96 | 1008.2 |
| 20260903081458 | 74 | 42 | 0.0 | 0.0 | 0.00 | 0.00 | 0.00 | 96 | 1008.2 |
| 20260903080958 | 74 | 42 | 0.0 | 0.0 | 0.00 | 0.00 | 0.00 | 96 | 1008.2 |
| 20260903080458 | 74 | 42 | 0.0 | 0.0 | 0.00 | 0.00 | 0.00 | 96 | 1008.2 |
| 20260903080007 | 74 | 42 | 0.0 | 4.0 | 0.00 | 0.00 | 0.00 | 96 | 1008.2 |
| 20260903075458 | 74 | 97 | 0.0 | 0.0 | 0.00 | 0.00 | 0.00 | 96 | 1008.2 |
| 20260903074458 | 74 | 97 | 0.0 | 5.0 | 0.00 | 0.00 | 0.00 | 95 | 1008.2 |
| 20260903073958 | 74 | 71 | 0.0 | 4.0 | 0.00 | 0.00 | 0.00 | 95 | 1008.2 |
| 20260903073459 | 74 | 64 | 0.0 | 0.0 | 0.00 | 0.00 | 0.00 | 95 | 1008.3 |
| 20260903072958 | 74 | 64 | 0.0 | 0.0 | 0.00 | 0.00 | 0.00 | 95 | 1008.3 |
| 20260903072458 | 75 | 64 | 0.0 | 0.0 | 0.00 | 0.00 | 0.00 | 94 | 1008.4 |
| 20260903071958 | 74 | 64 | 0.0 | 0.0 | 0.00 | 0.00 | 0.00 | 94 | 1008.5 |
| 20260903071458 | 75 | 64 | 0.0 | 0.0 | 0.00 | 0.00 | 0.00 | 94 | 1008.5 |
| 20260903070958 | 75 | 64 | 0.0 | 0.0 | 0.00 | 0.00 | 0.00 | 94 | 1008.6 |
| 20260903070458 | 75 | 64 | 0.0 | 0.0 | 0.00 | 0.00 | 0.00 | 94 | 1008.5 |
| 20260903065959 | 75 | 64 | 0.0 | 4.0 | 0.00 | 0.00 | 0.00 | 94 | 1008.4 |
| 20260903065458 | 75 | 81 | 0.0 | 4.0 | 0.00 | 0.00 | 0.00 | 93 | 1008.4 |
| 20260903064958 | 75 | 82 | 0.0 | 0.0 | 0.00 | 0.00 | 0.00 | 93 | 1008.4 |
| 20260903064458 | 75 | 82 | 0.0 | 0.0 | 0.00 | 0.00 | 0.00 | 92 | 1008.5 |
| 20260903063501 | 75 | 82 | 0.0 | 0.0 | 0.00 | 0.00 | 0.00 | 92 | 1008.5 |
| 20260903062958 | 75 | 82 | 0.0 | 0.0 | 0.00 | 0.00 | 0.00 | 92 | 1008.5 |
| 20260903062458 | 75 | 82 | 0.0 | 0.0 | 0.00 | 0.00 | 0.00 | 91 | 1008.6 |
| 20260903061958 | 76 | 82 | 0.0 | 0.0 | 0.00 | 0.00 | 0.00 | 91 | 1008.6 |
| 20260903061458 | 76 | 82 | 0.0 | 0.0 | 0.00 | 0.00 | 0.00 | 91 | 1008.6 |
| 20260903060958 | 76 | 82 | 0.0 | 0.0 | 0.00 | 0.00 | 0.00 | 91 | 1008.6 |
| 20260903060458 | 76 | 82 | 0.0 | 0.0 | 0.00 | 0.00 | 0.00 | 91 | 1008.7 |
| 20260903060032 | 76 | 82 | 0.0 | 0.0 | 0.00 | 0.00 | 0.00 | 91 | 1008.6 |
| 20260903055959 | 76 | 82 | 0.0 | 0.0 | 0.00 | 0.00 | 0.00 | 91 | 1008.6 |
| 20260903055502 | 76 | 82 | 0.0 | 0.0 | 0.00 | 0.00 | 0.00 | 90 | 1008.6 |
| 20260903054958 | 76 | 82 | 0.0 | 0.0 | 0.00 | 0.00 | 0.00 | 89 | 1008.7 |
| 20260903054458 | 76 | 82 | 0.0 | 0.0 | 0.00 | 0.00 | 0.00 | 89 | 1008.6 |
| 20260903053458 | 76 | 82 | 0.0 | 0.0 | 0.00 | 0.00 | 0.00 | 89 | 1008.6 |
| 20260903052958 | 77 | 82 | 0.0 | 1.0 | 0.00 | 0.00 | 0.00 | 89 | 1008.6 |
| 20260903052458 | 77 | 82 | 1.0 | 4.0 | 0.00 | 0.00 | 0.00 | 88 | 1008.6 |
| 20260903051958 | 77 | 91 | 0.0 | 2.0 | 0.00 | 0.00 | 0.00 | 88 | 1008.6 |
| 20260903051458 | 77 | 91 | 0.0 | 3.0 | 0.00 | 0.00 | 0.00 | 87 | 1008.5 |
| 20260903050958 | 77 | 15 | 0.0 | 0.0 | 0.00 | 0.00 | 0.00 | 87 | 1008.6 |
| 20260903050000 | 77 | 15 | 0.0 | 0.0 | 0.00 | 0.00 | 0.00 | 86 | 1008.7 |
| 20260903045458 | 77 | 15 | 0.0 | 0.0 | 0.00 | 0.00 | 0.00 | 86 | 1008.6 |
| 20260903044958 | 77 | 15 | 0.0 | 0.0 | 0.00 | 0.00 | 0.00 | 86 | 1008.7 |
| 20260903044458 | 77 | 15 | 0.0 | 0.0 | 0.00 | 0.00 | 0.00 | 86 | 1008.7 |
| 20260903044039 | 77 | 15 | 0.0 | 3.0 | 0.00 | 0.00 | 0.00 | 85 | 1008.7 |
| 20260903044005 | 77 | 15 | 0.0 | 3.0 | 0.00 | 0.00 | 0.00 | 85 | 1008.7 |
| 20260903043458 | 77 | 39 | 0.0 | 2.0 | 0.00 | 0.00 | 0.00 | 85 | 1008.8 |
| 20260903042959 | 77 | 39 | 0.0 | 0.0 | 0.00 | 0.00 | 0.00 | 85 | 1008.8 |
| 20260903042458 | 77 | 39 | 0.0 | 0.0 | 0.00 | 0.00 | 0.00 | 85 | 1008.8 |
| 20260903041958 | 77 | 39 | 0.0 | 4.0 | 0.00 | 0.00 | 0.00 | 85 | 1008.9 |
| 20260903041459 | 78 | 175 | 0.0 | 0.0 | 0.00 | 0.00 | 0.00 | 84 | 1008.9 |
| 20260903040959 | 78 | 175 | 0.0 | 0.0 | 0.00 | 0.00 | 0.00 | 84 | 1008.9 |
| 20260903040458 | 78 | 175 | 0.0 | 0.0 | 0.00 | 0.00 | 0.00 | 84 | 1008.9 |
| 20260903040012 | 78 | 175 | 0.0 | 0.0 | 0.00 | 0.00 | 0.00 | 84 | 1008.9 |
| 20260903035458 | 78 | 175 | 0.0 | 0.0 | 0.00 | 0.00 | 0.00 | 84 | 1009.0 |
| 20260903034958 | 78 | 175 | 0.0 | 0.0 | 0.00 | 0.00 | 0.00 | 83 | 1008.9 |
| 20260903034701 | 78 | 175 | 0.0 | 0.0 | 0.00 | 0.00 | 0.00 | 83 | 1008.9 |
| 20260903034458 | 78 | 175 | 0.0 | 0.0 | 0.00 | 0.00 | 0.00 | 83 | 1008.9 |
| 20260903033959 | 78 | 175 | 0.0 | 0.0 | 0.00 | 0.00 | 0.00 | 82 | 1009.0 |
| 20260903033500 | 78 | 175 | 0.0 | 0.0 | 0.00 | 0.00 | 0.00 | 82 | 1009.0 |
| 20260903033000 | 78 | 175 | 0.0 | 0.0 | 0.00 | 0.00 | 0.00 | 81 | 1009.0 |
| 20260903031958 | 78 | 175 | 0.0 | 0.0 | 0.00 | 0.00 | 0.00 | 81 | 1008.9 |
| 20260903031459 | 79 | 175 | 0.0 | 0.0 | 0.00 | 0.00 | 0.00 | 81 | 1009.0 |
| 20260903030959 | 79 | 175 | 0.0 | 0.0 | 0.00 | 0.00 | 0.00 | 80 | 1009.0 |
| 20260903030458 | 79 | 175 | 0.0 | 0.0 | 0.00 | 0.00 | 0.00 | 80 | 1009.0 |
| 20260903025959 | 79 | 175 | 0.0 | 0.0 | 0.00 | 0.00 | 0.00 | 80 | 1009.0 |
| 20260903025457 | 79 | 175 | 0.0 | 0.0 | 0.00 | 0.00 | 0.00 | 79 | 1009.0 |
| 20260903024959 | 79 | 175 | 0.0 | 0.0 | 0.00 | 0.00 | 0.00 | 79 | 1008.9 |
| 20260903024458 | 80 | 175 | 0.0 | 0.0 | 0.00 | 0.00 | 0.00 | 78 | 1008.9 |
| 20260903023458 | 80 | 175 | 0.0 | 0.0 | 0.00 | 0.00 | 0.00 | 77 | 1009.0 |
| 20260903022957 | 80 | 175 | 0.0 | 0.0 | 0.00 | 0.00 | 0.00 | 77 | 1008.9 |
| 20260903022458 | 80 | 175 | 0.0 | 0.0 | 0.00 | 0.00 | 0.00 | 76 | 1008.9 |
| 20260903021958 | 80 | 175 | 0.0 | 0.0 | 0.00 | 0.00 | 0.00 | 76 | 1008.8 |
| 20260903021458 | 80 | 175 | 0.0 | 0.0 | 0.00 | 0.00 | 0.00 | 75 | 1008.8 |
| 20260903020958 | 81 | 175 | 0.0 | 0.0 | 0.00 | 0.00 | 0.00 | 75 | 1008.8 |
| 20260903020458 | 81 | 175 | 0.0 | 0.0 | 0.00 | 0.00 | 0.00 | 75 | 1008.8 |
| 20260903015958 | 81 | 175 | 0.0 | 0.0 | 0.00 | 0.00 | 0.00 | 75 | 1008.8 |
| 20260903015457 | 81 | 175 | 0.0 | 0.0 | 0.00 | 0.00 | 0.00 | 75 | 1008.8 |
| 20260903014958 | 81 | 175 | 0.0 | 0.0 | 0.00 | 0.00 | 0.00 | 74 | 1008.7 |
| 20260903014459 | 81 | 175 | 0.0 | 0.0 | 0.00 | 0.00 | 0.00 | 74 | 1008.7 |
| 20260903013958 | 81 | 175 | 0.0 | 0.0 | 0.00 | 0.00 | 0.00 | 74 | 1008.6 |
| 20260903013459 | 81 | 175 | 0.0 | 0.0 | 0.00 | 0.00 | 0.00 | 73 | 1008.6 |
| 20260903012959 | 81 | 175 | 0.0 | 0.0 | 0.00 | 0.00 | 0.00 | 73 | 1008.5 |
| 20260903012641 | 81 | 175 | 0.0 | 0.0 | 0.00 | 0.00 | 0.00 | 72 | 1008.5 |
| 20260903012458 | 81 | 175 | 0.0 | 0.0 | 0.00 | 0.00 | 0.00 | 72 | 1008.5 |
| 20260903011957 | 82 | 175 | 0.0 | 0.0 | 0.00 | 0.00 | 0.00 | 72 | 1008.5 |
| 20260903011458 | 82 | 175 | 0.0 | 0.0 | 0.00 | 0.00 | 0.00 | 71 | 1008.4 |
| 20260903010457 | 83 | 175 | 0.0 | 0.0 | 0.00 | 0.00 | 0.00 | 69 | 1008.4 |
| 20260903005959 | 83 | 175 | 0.0 | 0.0 | 0.00 | 0.00 | 0.00 | 69 | 1008.3 |
| 20260903005458 | 83 | 175 | 0.0 | 0.0 | 0.00 | 0.00 | 0.00 | 68 | 1008.2 |
| 20260903004959 | 83 | 175 | 0.0 | 0.0 | 0.00 | 0.00 | 0.00 | 68 | 1008.2 |
| 20260903004459 | 83 | 175 | 0.0 | 0.0 | 0.00 | 0.00 | 0.00 | 67 | 1008.3 |
| 20260903003957 | 84 | 175 | 0.0 | 0.0 | 0.00 | 0.00 | 0.00 | 67 | 1008.3 |
| 20260903003457 | 84 | 175 | 0.0 | 0.0 | 0.00 | 0.00 | 0.00 | 67 | 1008.2 |
| 20260903003238 | 84 | 175 | 0.0 | 0.0 | 0.00 | 0.00 | 0.00 | 66 | 1008.3 |
| 20260903002958 | 84 | 175 | 0.0 | 0.0 | 0.00 | 0.00 | 0.00 | 66 | 1008.3 |
| 20260903002457 | 84 | 175 | 0.0 | 0.0 | 0.00 | 0.00 | 0.00 | 66 | 1008.3 |
| 20260903001957 | 84 | 175 | 0.0 | 0.0 | 0.00 | 0.00 | 0.00 | 65 | 1008.3 |
| 20260903001458 | 84 | 175 | 0.0 | 0.0 | 0.00 | 0.00 | 0.00 | 65 | 1008.3 |
| 20260903000959 | 84 | 175 | 0.0 | 0.0 | 0.00 | 0.00 | 0.00 | 65 | 1008.3 |
| 20260903000457 | 85 | 175 | 0.0 | 0.0 | 0.00 | 0.00 | 0.00 | 64 | 1008.2 |
| 20260902235457 | 85 | 175 | 0.0 | 0.0 | 0.00 | 0.00 | 0.00 | 64 | 1008.3 |
| 20260902234957 | 85 | 175 | 0.0 | 0.0 | 0.00 | 0.00 | 0.00 | 64 | 1008.3 |
| 20260902234501 | 85 | 175 | 0.0 | 0.0 | 0.00 | 0.00 | 0.00 | 63 | 1008.2 |
| 20260902233457 | 85 | 170 | 0.0 | 5.0 | 0.00 | 0.00 | 0.00 | 63 | 1008.3 |
| 20260902232958 | 86 | 167 | 5.0 | 7.0 | 0.00 | 0.00 | 0.00 | 63 | 1008.3 |
| 20260902231958 | 86 | 230 | 0.0 | 0.0 | 0.00 | 0.00 | 0.00 | 63 | 1008.4 |
| 20260902231458 | 86 | 230 | 0.0 | 0.0 | 0.00 | 0.00 | 0.00 | 63 | 1008.4 |
| 20260902231005 | 86 | 230 | 0.0 | 5.0 | 0.00 | 0.00 | 0.00 | 63 | 1008.4 |
| 20260902230500 | 86 | 219 | 0.0 | 2.0 | 0.00 | 0.00 | 0.00 | 63 | 1008.4 |
| 20260902225458 | 86 | 219 | 0.0 | 6.0 | 0.00 | 0.00 | 0.00 | 61 | 1008.5 |
| 20260902224959 | 85 | 174 | 0.0 | 5.0 | 0.00 | 0.00 | 0.00 | 61 | 1008.4 |
| 20260902224501 | 85 | 219 | 0.0 | 7.0 | 0.00 | 0.00 | 0.00 | 62 | 1008.5 |
| 20260902223457 | 86 | 146 | 0.0 | 6.0 | 0.00 | 0.00 | 0.00 | 62 | 1008.5 |
| 20260902221958 | 86 | 201 | 5.0 | 6.0 | 0.00 | 0.00 | 0.00 | 60 | 1008.4 |
| 20260902221458 | 87 | 182 | 0.0 | 5.0 | 0.00 | 0.00 | 0.00 | 61 | 1008.4 |
| 20260902215958 | 86 | 209 | 0.0 | 7.0 | 0.00 | 0.00 | 0.00 | 60 | 1008.4 |
| 20260902214957 | 86 | 209 | 7.0 | 7.0 | 0.00 | 0.00 | 0.00 | 60 | 1008.4 |
| 20260902214458 | 86 | 196 | 0.0 | 6.0 | 0.00 | 0.00 | 0.00 | 59 | 1008.5 |
| 20260902213957 | 86 | 182 | 4.0 | 7.0 | 0.00 | 0.00 | 0.00 | 59 | 1008.5 |
| 20260902213457 | 86 | 189 | 3.0 | 8.0 | 0.00 | 0.00 | 0.00 | 60 | 1008.6 |
| 20260902211957 | 86 | 189 | 6.0 | 6.0 | 0.00 | 0.00 | 0.00 | 61 | 1008.7 |
| 20260902211459 | 85 | 14 | 0.0 | 3.0 | 0.00 | 0.00 | 0.00 | 64 | 1008.7 |
| 20260902210458 | 84 | 84 | 0.0 | 0.0 | 0.00 | 0.00 | 0.00 | 63 | 1008.8 |
| 20260902205457 | 84 | 15 | 0.0 | 5.0 | 0.00 | 0.00 | 0.00 | 64 | 1008.8 |
| 20260902204957 | 84 | 57 | 0.0 | 6.0 | 0.00 | 0.00 | 0.00 | 64 | 1008.8 |
| 20260902204459 | 84 | 12 | 0.0 | 5.0 | 0.00 | 0.00 | 0.00 | 65 | 1008.8 |
| 20260902203958 | 84 | 70 | 0.0 | 5.0 | 0.00 | 0.00 | 0.00 | 64 | 1008.8 |
| 20260902203458 | 83 | 73 | 5.0 | 8.0 | 0.00 | 0.00 | 0.00 | 64 | 1008.7 |
| 20260902203002 | 83 | 15 | 0.0 | 7.0 | 0.00 | 0.00 | 0.00 | 65 | 1008.7 |
| 20260902202505 | 84 | 18 | 0.0 | 8.0 | 0.00 | 0.00 | 0.00 | 66 | 1008.8 |
| 20260902201958 | 84 | 122 | 6.0 | 9.0 | 0.00 | 0.00 | 0.00 | 65 | 1008.8 |
| 20260902201457 | 83 | 37 | 0.0 | 7.0 | 0.00 | 0.00 | 0.00 | 65 | 1008.9 |
| 20260902200957 | 83 | 80 | 4.0 | 7.0 | 0.00 | 0.00 | 0.00 | 65 | 1009.0 |
| 20260902200458 | 84 | 26 | 0.0 | 11.0 | 0.00 | 0.00 | 0.00 | 65 | 1009.0 |
| 20260902195958 | 84 | 23 | 0.0 | 6.0 | 0.00 | 0.00 | 0.00 | 64 | 1009.1 |
| 20260902195457 | 83 | 71 | 0.0 | 4.0 | 0.00 | 0.00 | 0.00 | 64 | 1009.3 |
| 20260902194957 | 83 | 63 | 0.0 | 7.0 | 0.00 | 0.00 | 0.00 | 65 | 1009.4 |
| 20260902194500 | 83 | 19 | 2.0 | 9.0 | 0.00 | 0.00 | 0.00 | 66 | 1009.3 |
| 20260902193958 | 83 | 274 | 1.0 | 7.0 | 0.00 | 0.00 | 0.00 | 66 | 1009.4 |
| 20260902193500 | 83 | 2 | 8.0 | 8.0 | 0.00 | 0.00 | 0.00 | 67 | 1009.5 |
| 20260902192957 | 82 | 326 | 0.0 | 6.0 | 0.00 | 0.00 | 0.00 | 67 | 1009.5 |
| 20260902192501 | 82 | 22 | 0.0 | 6.0 | 0.00 | 0.00 | 0.00 | 67 | 1009.6 |
| 20260902191958 | 82 | 329 | 1.0 | 8.0 | 0.00 | 0.00 | 0.00 | 66 | 1009.6 |
| 20260902191457 | 83 | 313 | 0.0 | 6.0 | 0.00 | 0.00 | 0.00 | 67 | 1009.6 |
| 20260902191003 | 83 | 22 | 0.0 | 6.0 | 0.00 | 0.00 | 0.00 | 67 | 1009.7 |
| 20260902190458 | 83 | 319 | 0.0 | 6.0 | 0.00 | 0.00 | 0.00 | 67 | 1009.7 |
| 20260902185959 | 83 | 274 | 0.0 | 5.0 | 0.00 | 0.00 | 0.00 | 66 | 1009.7 |
| 20260902185457 | 83 | 164 | 0.0 | 7.0 | 0.00 | 0.00 | 0.00 | 66 | 1009.8 |
| 20260902184957 | 82 | 195 | 0.0 | 5.0 | 0.00 | 0.00 | 0.00 | 67 | 1009.8 |
| 20260902184457 | 82 | 23 | 0.0 | 7.0 | 0.00 | 0.00 | 0.00 | 67 | 1009.8 |
| 20260902183957 | 82 | 151 | 0.0 | 4.0 | 0.00 | 0.00 | 0.00 | 67 | 1009.8 |
| 20260902183458 | 82 | 170 | 2.0 | 6.0 | 0.00 | 0.00 | 0.00 | 66 | 1009.8 |
| 20260902182958 | 81 | 161 | 0.0 | 6.0 | 0.00 | 0.00 | 0.00 | 68 | 1009.9 |
| 20260902182457 | 81 | 49 | 0.0 | 6.0 | 0.00 | 0.00 | 0.00 | 71 | 1009.9 |
| 20260902181957 | 80 | 42 | 4.0 | 7.0 | 0.00 | 0.00 | 0.00 | 70 | 1009.9 |
| 20260902181457 | 80 | 59 | 4.0 | 8.0 | 0.00 | 0.00 | 0.00 | 70 | 1009.9 |
| 20260902181003 | 80 | 7 | 0.0 | 5.0 | 0.00 | 0.00 | 0.00 | 73 | 1009.9 |
| 20260902174957 | 80 | 22 | 0.0 | 5.0 | 0.00 | 0.00 | 0.00 | 73 | 1010.1 |
| 20260902174457 | 80 | 21 | 5.0 | 8.0 | 0.00 | 0.00 | 0.00 | 72 | 1010.3 |
| 20260902173959 | 80 | 119 | 0.0 | 7.0 | 0.00 | 0.00 | 0.00 | 72 | 1010.2 |
| 20260902173457 | 80 | 358 | 0.0 | 7.0 | 0.00 | 0.00 | 0.00 | 74 | 1010.3 |
| 20260902172957 | 80 | 35 | 0.0 | 0.0 | 0.00 | 0.00 | 0.00 | 73 | 1010.4 |
| 20260902172457 | 79 | 35 | 0.0 | 5.0 | 0.00 | 0.00 | 0.00 | 73 | 1010.6 |
| 20260902171957 | 80 | 146 | 0.0 | 4.0 | 0.00 | 0.00 | 0.00 | 71 | 1010.7 |
| 20260902171457 | 80 | 126 | 0.0 | 5.0 | 0.00 | 0.00 | 0.00 | 73 | 1010.8 |
| 20260902165959 | 79 | 150 | 2.0 | 5.0 | 0.00 | 0.00 | 0.00 | 73 | 1011.5 |
| 20260902165457 | 79 | 208 | 0.0 | 6.0 | 0.00 | 0.00 | 0.00 | 73 | 1011.6 |
| 20260902164959 | 78 | 215 | 5.0 | 6.0 | 0.00 | 0.00 | 0.00 | 73 | 1011.5 |
| 20260902164501 | 78 | 210 | 2.0 | 4.0 | 0.00 | 0.00 | 0.00 | 74 | 1011.5 |
| 20260902163958 | 77 | 39 | 0.0 | 2.0 | 0.00 | 0.00 | 0.00 | 77 | 1011.4 |
| 20260902163458 | 77 | 39 | 0.0 | 4.0 | 0.00 | 0.00 | 0.00 | 78 | 1011.0 |
| 20260902163006 | 77 | 23 | 4.0 | 6.0 | 0.00 | 0.00 | 0.00 | 78 | 1011.0 |
| 20260902161957 | 77 | 78 | 0.0 | 5.0 | 0.00 | 0.00 | 0.00 | 78 | 1011.2 |
| 20260902160957 | 77 | 12 | 0.0 | 2.0 | 0.00 | 0.00 | 0.00 | 77 | 1011.1 |
| 20260902160457 | 77 | 126 | 0.0 | 3.0 | 0.00 | 0.00 | 0.00 | 77 | 1011.1 |
| 20260902155958 | 77 | 67 | 0.0 | 3.0 | 0.00 | 0.00 | 0.00 | 78 | 1010.9 |
| 20260902152957 | 74 | 26 | 0.0 | 5.0 | 0.00 | 0.00 | 0.00 | 82 | 1010.8 |
| 20260902152740 | 74 | 354 | 5.0 | 5.0 | 0.00 | 0.00 | 0.00 | 82 | 1010.8 |
| 20260902152457 | 74 | 354 | 5.0 | 5.0 | 0.00 | 0.00 | 0.00 | 82 | 1010.8 |
| 20260902152001 | 74 | 189 | 0.0 | 5.0 | 0.00 | 0.00 | 0.00 | 83 | 1010.8 |
| 20260902151457 | 73 | 99 | 0.0 | 6.0 | 0.00 | 0.00 | 0.00 | 84 | 1010.6 |
| 20260902150957 | 73 | 35 | 0.0 | 5.0 | 0.00 | 0.00 | 0.00 | 84 | 1010.6 |
| 20260902150457 | 73 | 99 | 3.0 | 5.0 | 0.00 | 0.00 | 0.00 | 85 | 1010.7 |
| 20260902145958 | 72 | 68 | 0.0 | 2.0 | 0.00 | 0.00 | 0.00 | 87 | 1010.7 |
| 20260902145531 | 72 | 68 | 2.0 | 7.0 | 0.00 | 0.00 | 0.00 | 87 | 1010.7 |
| 20260902145457 | 72 | 68 | 2.0 | 7.0 | 0.00 | 0.00 | 0.00 | 87 | 1010.7 |
| 20260902145038 | 72 | 351 | 2.0 | 6.0 | 0.00 | 0.00 | 0.00 | 87 | 1010.6 |
| 20260902144957 | 72 | 39 | 5.0 | 7.0 | 0.00 | 0.00 | 0.00 | 87 | 1010.7 |
| 20260902144457 | 72 | 351 | 2.0 | 6.0 | 0.00 | 0.00 | 0.00 | 87 | 1010.6 |
| 20260902143528 | 71 | 1 | 4.0 | 6.0 | 0.00 | 0.00 | 0.00 | 89 | 1010.7 |
| 20260902143457 | 71 | 1 | 4.0 | 6.0 | 0.00 | 0.00 | 0.00 | 89 | 1010.7 |
| 20260902142958 | 71 | 67 | 6.0 | 8.0 | 0.00 | 0.00 | 0.00 | 87 | 1010.8 |
| 20260902142458 | 71 | 57 | 0.0 | 6.0 | 0.00 | 0.00 | 0.00 | 88 | 1010.8 |
| 20260902141001 | 70 | 57 | 0.0 | 6.0 | 0.00 | 0.00 | 0.00 | 91 | 1011.1 |
| 20260902135457 | 69 | 73 | 0.0 | 4.0 | 0.00 | 0.00 | 0.00 | 93 | 1011.1 |
| 20260902134457 | 69 | 66 | 0.0 | 2.0 | 0.00 | 0.00 | 0.00 | 94 | 1011.1 |
| 20260902133457 | 68 | 52 | 1.0 | 5.0 | 0.00 | 0.00 | 0.00 | 94 | 1010.9 |
| 20260902132958 | 68 | 66 | 0.0 | 2.0 | 0.00 | 0.00 | 0.00 | 96 | 1010.9 |
| 20260902132457 | 68 | 66 | 0.0 | 4.0 | 0.00 | 0.00 | 0.00 | 96 | 1010.9 |
| 20260902131957 | 68 | 78 | 1.0 | 7.0 | 0.00 | 0.00 | 0.00 | 96 | 1011.0 |
| 20260902131457 | 68 | 19 | 0.0 | 0.0 | 0.00 | 0.00 | 0.00 | 98 | 1011.1 |
| 20260902130957 | 68 | 19 | 0.0 | 0.0 | 0.00 | 0.00 | 0.00 | 99 | 1011.1 |
| 20260902130457 | 68 | 19 | 0.0 | 5.0 | 0.00 | 0.00 | 0.00 | 99 | 1011.0 |
| 20260902130038 | 68 | 67 | 0.0 | 4.0 | 0.00 | 0.00 | 0.00 | 99 | 1011.0 |
| 20260902125457 | 67 | 43 | 0.0 | 0.0 | 0.00 | 0.00 | 0.00 | 99 | 1010.9 |
| 20260902124457 | 67 | 4 | 0.0 | 4.0 | 0.00 | 0.00 | 0.00 | 99 | 1010.9 |
| 20260902122958 | 66 | 56 | 0.0 | 0.0 | 0.00 | 0.00 | 0.00 | 99 | 1011.1 |
| 20260902122002 | 66 | 56 | 0.0 | 1.0 | 0.00 | 0.00 | 0.00 | 99 | 1010.8 |
| 20260902121457 | 66 | 56 | 0.0 | 3.0 | 0.00 | 0.00 | 0.00 | 99 | 1010.7 |
| 20260902120957 | 66 | 59 | 0.0 | 2.0 | 0.00 | 0.00 | 0.00 | 99 | 1010.7 |
| 20260902115958 | 66 | 140 | 0.0 | 0.0 | 0.00 | 0.00 | 0.00 | 99 | 1010.8 |
| 20260902115457 | 66 | 140 | 0.0 | 0.0 | 0.00 | 0.00 | 0.00 | 99 | 1010.9 |
| 20260902114957 | 66 | 140 | 0.0 | 0.0 | 0.00 | 0.00 | 0.00 | 99 | 1010.8 |
| 20260902114530 | 66 | 140 | 0.0 | 0.0 | 0.00 | 0.00 | 0.00 | 99 | 1010.7 |
| 20260902114457 | 66 | 140 | 0.0 | 0.0 | 0.00 | 0.00 | 0.00 | 99 | 1010.7 |
| 20260902114032 | 66 | 140 | 0.0 | 0.0 | 0.00 | 0.00 | 0.00 | 99 | 1010.9 |
| 20260902113957 | 66 | 140 | 0.0 | 0.0 | 0.00 | 0.00 | 0.00 | 99 | 1010.9 |
| 20260902113458 | 66 | 140 | 0.0 | 0.0 | 0.00 | 0.00 | 0.00 | 99 | 1010.8 |
| 20260902112957 | 66 | 140 | 0.0 | 0.0 | 0.00 | 0.00 | 0.00 | 99 | 1010.7 |
| 20260902112458 | 66 | 140 | 0.0 | 0.0 | 0.00 | 0.00 | 0.00 | 99 | 1010.9 |
| 20260902111957 | 66 | 140 | 0.0 | 0.0 | 0.00 | 0.00 | 0.00 | 99 | 1011.0 |
| 20260902111535 | 66 | 140 | 0.0 | 3.0 | 0.00 | 0.00 | 0.00 | 99 | 1011.1 |
| 20260902111459 | 66 | 140 | 0.0 | 3.0 | 0.00 | 0.00 | 0.00 | 99 | 1011.1 |
| 20260902111005 | 66 | 164 | 0.0 | 0.0 | 0.00 | 0.00 | 0.00 | 99 | 1011.6 |
| 20260902110457 | 66 | 164 | 0.0 | 0.0 | 0.00 | 0.00 | 0.00 | 99 | 1011.7 |
| 20260902105958 | 66 | 164 | 0.0 | 0.0 | 0.00 | 0.00 | 0.00 | 99 | 1011.6 |
| 20260902105457 | 66 | 164 | 0.0 | 0.0 | 0.00 | 0.00 | 0.00 | 99 | 1011.6 |
| 20260902104957 | 66 | 164 | 0.0 | 0.0 | 0.00 | 0.00 | 0.00 | 99 | 1011.4 |
| 20260902104459 | 66 | 164 | 0.0 | 0.0 | 0.00 | 0.00 | 0.00 | 99 | 1011.8 |
| 20260902104005 | 66 | 164 | 0.0 | 0.0 | 0.00 | 0.00 | 0.00 | 99 | 1011.7 |